Hlavní strana
METAR-TAF:

METAR-TAF

Letiště :

Crawfordsville, Indiana, Spojené státy americké

zeměpisná šířka: 39-58-34N, zeměpisná délka: 086-55-09W, výška: 244 m

Aktuální stav počasí

Zpráva byla vytvořena před 8 minutami, v 12:55 UTC
Západní vítr 3 kt
Teplota -2°C
Vlhkost vzduchu 93%
Tlak 1019 hPa
Viditelnost: 4.8 km
Zataženo ve výšce 300 ft
kouřmo

METAR: KCFJ 281255Z AUTO 26003KT 3SM BR OVC003 M02/M03 A3010 RMK AO2 T10221026

Čas: 08:03 (13:03 UTC)


TAF: chybějící

Stav a předpovědi počasí z více než 4 000 letišť (zprávy METAR a TAF).

Červené a žluté tečky na mapě představují dostupné meteorologické stanice.

Když kurzor umístíte na tečku, zobrazí se název stanice.

Pak kliknutím zobrazíte stav a předpověď počasí.

Chcete-li změnit mapu, kliknutím na zelené tlačítko se znaménkem +mapu přiblížíte, kliknutím na zelené tlačítko se znaménkem – mapu oddálíte a kliknutím na zelené šipky přejdete na sousední mapy.


METAR-TAF: